Location: Quedlinburg
(51.7921°N, 11.1414°E)
Time: 18:04:35
(UTC+02:00)

NOAA 18 - Pass Details

Date: 14 March 2026
Orbit: 837 x 857 km, 98.8° (Epoch: 15 April)

Event Time Altitude Azimuth Distance (km) Brightness Sun altitude
Exits shadow 23:22:39 23° 309° (NW) 1,722 7.2 -38.8°
Drops below altitude 10° 23:25:05 10° 329° (NNW) 2,462 8.3 -38.9°
Sets 23:27:42 0° 339° (NNW) 3,402 9.3 -39.0°
